TIANWANG 1B (TW-1B)
1 40927U 15051C   19117.50624332  .00009650  00000-0  15567-3 0  9995
2 40927  97.1445 163.2390 0007800 201.8726 266.0673 15.53080335201915
TIANWANG 1A (TW-1A)
1 40928U 15051D   19117.47053222  .00002938  00000-0  74488-4 0  9996
2 40928  97.1508 149.9274 0009119 261.8442 207.0319 15.40454181201130
LAPAN A2
1 40931U 15052B   19116.19248610  .00000664  00000-0  34605-5 0  9998
2 40931   5.9966  78.1033 0012386 114.5619 245.5852 14.76604542193343
LQSAT
1 40958U 15057A   19116.92109738 -.00000001 +00000-0 +75572-5 0  9994
2 40958 097.9020 187.5320 0019277 053.7804 306.5182 14.73074694191049
CHUBUSAT 2
1 41338U 16012B   19116.39446359  .00000295  00000-0  16189-4 0  9995
2 41338  31.0022 123.4727 0013818 295.1331  64.7870 15.00128986174903
CHUBUSAT 3
1 41339U 16012C   19117.36818620  .00000280  00000-0  15006-4 0  9999
2 41339  31.0090 115.4472 0013779 312.3923  47.5550 15.00306340175044
OUFTI-1
1 41458U 16025C   19116.89068459 +.00001604 +00000-0 +85420-4 0  9997
2 41458 098.1017 201.0614 0167523 174.0461 186.2810 15.05621183164628
E-STAR-2
1 41459U 16025D   19117.49304844  .00002047  00000-0  10818-3 0  9996
2 41459  98.1028 201.3873 0169194 173.2517 187.1008 15.05282450164696
AAUSAT 4
1 41460U 16025E   19117.46645035  .00001981  00000-0  10322-3 0  9991
2 41460  98.0957 202.4722 0158658 166.6274 193.9280 15.07078096164803
NUSAT 1
1 41557U 16033B   19117.49410164  .00001253  00000-0  49848-4 0  9991
2 41557  97.4172 205.3043 0015434 119.5764 240.7015 15.27073307162127
BEESAT 4
1 41619U 16040W   19117.41505877  .00001203  00000-0  54141-4 0  9993
2 41619  97.3721 180.6034 0010820 199.1112 160.9720 15.22972615145903
PRATHAM
1 41783U 16059A   19117.14123412  .00000033  00000-0  15676-4 0  9996
2 41783  98.0724 177.8694 0033507 186.9467 173.1275 14.62985851137866
ALSAT 1N
1 41789U 16059G   19117.44802279  .00000098  00000-0  27544-4 0  9998
2 41789  98.0733 180.0498 0028325 175.3727 184.7737 14.64232963138002
NAYIF 1
1 42017U 17008BX  19117.28576494  .00001309  00000-0  54747-4 0  9998
2 42017  97.4070 184.9127 0006220  10.6624 349.4745 15.25365735121938
MAX VALIER SAT
1 42778U 17036P   19117.19422332  .00000864  00000-0  40897-4 0  9990
2 42778  97.3595 176.0044 0013782  54.3590 305.8928 15.21907860102251
